Regional Weather Roundup
Issued by NWS

Home | Current Version | Previous Version | Text Only | Print | Product List | Glossary Off
Versions: 1 2 3 4 5 6 7 8 9 10 11 12 13 14 15 16 17 18 19 20 21 22 23 24 25 26 27 28 29 30 31 32 33 34 35 36 37 38 39 40 41 42 43 44 45 46 47 48 49 50

000
ASUS43 KLSX 301459
RWRMO

WEATHER SUMMARY FOR MISSOURI
NATIONAL WEATHER SERVICE SPRINGFIELD MO
1000 AM CDT THU OCT 30 2014

NOTE: "FAIR" INDICATES FEW OR NO CLOUDS BELOW 12,000 FEET WITH NO
       SIGNIFICANT WEATHER AND/OR OBSTRUCTIONS TO VISIBILITY.
       CURRENT SKY AND/OR WEATHER CONDITIONS ARE NOT AVAILABLE FOR
       CHILLICOTHE AND FARMINGTON.

MOZ001>031-035>038-043-044-053-054-301600-
...NORTHERN AND WESTERN MISSOURI...

CITY           SKY/WX    TMP DP  RH WIND       PRES   REMARKS
KANSAS CTY INT PTSUNNY   51  43  74 SW5       30.02S
KANSAS C DTWN  CLOUDY    56  42  59 SW5       30.02S
LEE`S SUMMIT   PTSUNNY   53  42  66 S6        30.03F
ST JOSEPH      MOSUNNY   53  42  66 CALM      30.03S
CHILLICOTHE      N/A     50  39  66 S7        30.04S
KIRKSVILLE     LGT RAIN  44  40  85 S21G28    29.99F

$$
MOZ066>068-077>081-088>096-101>105-301600-
...SOUTHWEST MISSOURI...

CITY           SKY/WX    TMP DP  RH WIND       PRES   REMARKS
SPRINGFIELD    LGT RAIN  48  42  80 S12       30.09S
JOPLIN         PTSUNNY   58  42  55 SW17G24   30.08S

$$
MOZ032>034-039>042-045>050-055>058-069>072-301600-
...CENTRAL MISSOURI...

CITY           SKY/WX    TMP DP  RH WIND       PRES   REMARKS
COLUMBIA       CLOUDY    47  37  68 SE10      30.10F
JEFFERSON CITY PTSUNNY   47  37  68 CALM      30.13R
ROLLA          PTSUNNY   52  33  48 S15       30.10R
SEDALIA        CLOUDY    54  44  69 S8        30.06F
OSAGE BEACH    CLOUDY    48  36  61 W5        30.12R

$$
MOZ051-052-059>065-301600-
...EAST CENTRAL MISSOURI...

CITY           SKY/WX    TMP DP  RH WIND       PRES   REMARKS
ST LOUIS INTL  PTSUNNY   49  37  63 S6        30.15R
SPIRIT OF STL  PTSUNNY   45  39  79 CALM      30.14S
ST CHARLES     CLOUDY    46  42  86 CALM      30.14S

$$
MOZ072>076-082>087-097>100-106>115-301600-
...SOUTH CENTRAL AND SOUTHEAST MISSOURI...

CITY           SKY/WX    TMP DP  RH WIND       PRES   REMARKS
CAPE GIRARDEAU SUNNY     50  43  77 SE3       30.17F HAZE
FARMINGTON     SUNNY     48  39  71 SE12      30.17R
POPLAR BLUFF   SUNNY     50  41  71 CALM      30.16F
WEST PLAINS    SUNNY     51  33  50 S10       30.15S

$$



USA.gov is the U.S. government's official web portal to all federal, state and local government web resources and services.